| time (UTC) | temp F | wind direction | speed MPH | gust MPH | rain 1hr in | rain 24hr in | rain mn in | humidity % | barometer mb |
| 20260902124633 | 74 | 52 | 0.0 | 0.0 | 0.00 | 0.00 | 0.00 | 80 | 1012.8 |
| 20260902124130 | 74 | 52 | 0.0 | 3.0 | 0.00 | 0.00 | 0.00 | 81 | 1012.8 |
| 20260902123634 | 74 | 52 | 0.0 | 3.0 | 0.00 | 0.00 | 0.00 | 81 | 1012.8 |
| 20260902123128 | 74 | 52 | 1.0 | 3.0 | 0.00 | 0.00 | 0.00 | 82 | 1012.7 |
| 20260902122632 | 74 | 52 | 1.0 | 3.0 | 0.00 | 0.00 | 0.00 | 82 | 1012.7 |
| 20260902122129 | 74 | 52 | 1.0 | 3.0 | 0.00 | 0.00 | 0.00 | 82 | 1012.7 |
| 20260902121636 | 73 | 52 | 0.0 | 2.0 | 0.00 | 0.00 | 0.00 | 82 | 1012.6 |
| 20260902121132 | 73 | 52 | 1.0 | 2.0 | 0.00 | 0.00 | 0.00 | 82 | 1012.5 |
| 20260902120619 | 73 | 52 | 0.0 | 2.0 | 0.00 | 0.00 | 0.00 | 82 | 1012.4 |
| 20260902120117 | 73 | 52 | 0.0 | 3.0 | 0.00 | 0.00 | 0.00 | 82 | 1012.4 |
| 20260902115623 | 73 | 52 | 1.0 | 3.0 | 0.00 | 0.00 | 0.00 | 82 | 1012.4 |
| 20260902115122 | 74 | 52 | 2.0 | 3.0 | 0.00 | 0.00 | 0.00 | 83 | 1012.4 |
| 20260902114625 | 74 | 90 | 2.0 | 4.0 | 0.00 | 0.00 | 0.00 | 83 | 1012.4 |
| 20260902114122 | 74 | 84 | 1.0 | 4.0 | 0.00 | 0.00 | 0.00 | 83 | 1012.3 |
| 20260902113626 | 74 | 68 | 0.0 | 4.0 | 0.00 | 0.00 | 0.00 | 83 | 1012.4 |
| 20260902113145 | 74 | 42 | 2.0 | 4.0 | 0.00 | 0.00 | 0.00 | 83 | 1012.2 |
| 20260902112628 | 74 | 60 | 2.0 | 4.0 | 0.00 | 0.00 | 0.00 | 83 | 1012.3 |
| 20260902112126 | 74 | 68 | 2.0 | 8.0 | 0.00 | 0.00 | 0.00 | 83 | 1012.3 |
| 20260902111634 | 74 | 53 | 3.0 | 8.0 | 0.00 | 0.00 | 0.00 | 83 | 1012.4 |
| 20260902111156 | 75 | 40 | 4.0 | 8.0 | 0.00 | 0.00 | 0.00 | 82 | 1012.4 |
| 20260902110623 | 75 | 44 | 3.0 | 7.0 | 0.00 | 0.00 | 0.00 | 82 | 1012.4 |
| 20260902110144 | 75 | 58 | 2.0 | 7.0 | 0.00 | 0.00 | 0.00 | 81 | 1012.5 |
| 20260902105646 | 75 | 50 | 2.0 | 5.0 | 0.00 | 0.00 | 0.00 | 80 | 1012.4 |
| 20260902105121 | 75 | 55 | 1.0 | 4.0 | 0.00 | 0.00 | 0.00 | 80 | 1012.5 |
| 20260902104646 | 75 | 59 | 1.0 | 4.0 | 0.00 | 0.00 | 0.00 | 80 | 1012.4 |
| 20260902104147 | 75 | 58 | 2.0 | 3.0 | 0.00 | 0.00 | 0.00 | 80 | 1012.4 |
| 20260902103631 | 75 | 84 | 0.0 | 4.0 | 0.00 | 0.00 | 0.00 | 79 | 1012.4 |
| 20260902103128 | 76 | 84 | 2.0 | 4.0 | 0.00 | 0.00 | 0.00 | 78 | 1012.3 |
| 20260902102632 | 76 | 62 | 0.0 | 4.0 | 0.00 | 0.00 | 0.00 | 77 | 1012.4 |
| 20260902102132 | 76 | 101 | 1.0 | 4.0 | 0.00 | 0.00 | 0.00 | 76 | 1012.5 |
| 20260902101616 | 76 | 54 | 1.0 | 3.0 | 0.00 | 0.00 | 0.00 | 75 | 1012.5 |
| 20260902101135 | 77 | 46 | 1.0 | 3.0 | 0.00 | 0.00 | 0.00 | 74 | 1012.6 |
| 20260902100617 | 77 | 59 | 1.0 | 3.0 | 0.00 | 0.00 | 0.00 | 73 | 1012.5 |
| 20260902100119 | 77 | 25 | 0.0 | 2.0 | 0.00 | 0.00 | 0.00 | 72 | 1012.6 |
| 20260902095622 | 77 | 25 | 1.0 | 2.0 | 0.00 | 0.00 | 0.00 | 72 | 1012.5 |
| 20260902095141 | 77 | 56 | 1.0 | 2.0 | 0.00 | 0.00 | 0.00 | 71 | 1012.5 |
| 20260902094626 | 77 | 56 | 0.0 | 2.0 | 0.00 | 0.00 | 0.00 | 71 | 1012.6 |
| 20260902094126 | 78 | 56 | 1.0 | 4.0 | 0.00 | 0.00 | 0.00 | 71 | 1012.7 |
| 20260902093629 | 78 | 63 | 2.0 | 6.0 | 0.00 | 0.00 | 0.00 | 70 | 1012.7 |
| 20260902093126 | 78 | 90 | 2.0 | 4.0 | 0.00 | 0.00 | 0.00 | 70 | 1012.8 |
| 20260902092628 | 78 | 51 | 1.0 | 3.0 | 0.00 | 0.00 | 0.00 | 69 | 1012.8 |
| 20260902092126 | 78 | 250 | 1.0 | 2.0 | 0.00 | 0.00 | 0.00 | 69 | 1012.8 |
| 20260902091629 | 78 | 250 | 1.0 | 2.0 | 0.00 | 0.00 | 0.00 | 69 | 1012.7 |
| 20260902091126 | 79 | 250 | 0.0 | 2.0 | 0.00 | 0.00 | 0.00 | 67 | 1012.6 |
| 20260902090614 | 79 | 250 | 0.0 | 2.0 | 0.00 | 0.00 | 0.00 | 67 | 1012.5 |
| 20260902090157 | 79 | 250 | 0.0 | 3.0 | 0.00 | 0.00 | 0.00 | 67 | 1012.5 |
| 20260902085622 | 79 | 250 | 2.0 | 3.0 | 0.00 | 0.00 | 0.00 | 67 | 1012.6 |
| 20260902085119 | 78 | 266 | 1.0 | 4.0 | 0.00 | 0.00 | 0.00 | 68 | 1012.7 |
| 20260902084644 | 78 | 279 | 1.0 | 4.0 | 0.00 | 0.00 | 0.00 | 68 | 1012.9 |
| 20260902084122 | 78 | 142 | 0.0 | 4.0 | 0.00 | 0.00 | 0.00 | 68 | 1012.9 |
| 20260902083645 | 78 | 67 | 1.0 | 3.0 | 0.00 | 0.00 | 0.00 | 68 | 1012.9 |
| 20260902083122 | 79 | 14 | 2.0 | 3.0 | 0.00 | 0.00 | 0.00 | 68 | 1012.8 |
| 20260902082626 | 79 | 210 | 1.0 | 4.0 | 0.00 | 0.00 | 0.00 | 68 | 1012.8 |
| 20260902082123 | 79 | 60 | 0.0 | 4.0 | 0.00 | 0.00 | 0.00 | 67 | 1012.8 |
| 20260902081631 | 79 | 350 | 2.0 | 4.0 | 0.00 | 0.00 | 0.00 | 66 | 1012.9 |
| 20260902081131 | 79 | 36 | 1.0 | 3.0 | 0.00 | 0.00 | 0.00 | 66 | 1012.9 |
| 20260902080635 | 79 | 57 | 1.0 | 7.0 | 0.00 | 0.00 | 0.00 | 66 | 1012.7 |
| 20260902080142 | 79 | 98 | 4.0 | 7.0 | 0.00 | 0.00 | 0.00 | 65 | 1012.9 |
| 20260902075628 | 79 | 336 | 2.0 | 4.0 | 0.00 | 0.00 | 0.00 | 65 | 1012.6 |
| 20260902075127 | 79 | 209 | 1.0 | 4.0 | 0.00 | 0.00 | 0.00 | 64 | 1012.1 |
| 20260902074634 | 79 | 226 | 1.0 | 4.0 | 0.00 | 0.00 | 0.00 | 64 | 1012.0 |
| 20260902074132 | 80 | 213 | 1.0 | 5.0 | 0.00 | 0.00 | 0.00 | 64 | 1012.0 |
| 20260902073617 | 80 | 240 | 2.0 | 5.0 | 0.00 | 0.00 | 0.00 | 64 | 1011.9 |
| 20260902073134 | 80 | 230 | 0.0 | 4.0 | 0.00 | 0.00 | 0.00 | 64 | 1011.9 |
| 20260902072640 | 80 | 196 | 1.0 | 6.0 | 0.00 | 0.00 | 0.00 | 64 | 1011.9 |
| 20260902072117 | 80 | 279 | 1.0 | 6.0 | 0.00 | 0.00 | 0.00 | 64 | 1011.9 |
| 20260902071621 | 80 | 185 | 1.0 | 5.0 | 0.00 | 0.00 | 0.00 | 64 | 1011.9 |
| 20260902071155 | 80 | 194 | 1.0 | 5.0 | 0.00 | 0.00 | 0.00 | 64 | 1011.9 |
| 20260902070618 | 80 | 308 | 0.0 | 7.0 | 0.00 | 0.00 | 0.00 | 63 | 1011.9 |
| 20260902070118 | 80 | 226 | 2.0 | 7.0 | 0.00 | 0.00 | 0.00 | 63 | 1011.8 |
| 20260902065643 | 80 | 179 | 2.0 | 8.0 | 0.00 | 0.00 | 0.00 | 63 | 1011.8 |
| 20260902065120 | 80 | 164 | 2.0 | 8.0 | 0.00 | 0.00 | 0.00 | 63 | 1011.9 |
| 20260902064623 | 80 | 148 | 2.0 | 5.0 | 0.00 | 0.00 | 0.00 | 63 | 1011.9 |
| 20260902064121 | 81 | 171 | 2.0 | 5.0 | 0.00 | 0.00 | 0.00 | 63 | 1011.9 |
| 20260902063627 | 81 | 218 | 2.0 | 6.0 | 0.00 | 0.00 | 0.00 | 63 | 1012.0 |
| 20260902063130 | 81 | 181 | 3.0 | 6.0 | 0.00 | 0.00 | 0.00 | 62 | 1011.9 |
| 20260902062633 | 81 | 173 | 2.0 | 6.0 | 0.00 | 0.00 | 0.00 | 62 | 1011.8 |
| 20260902062129 | 81 | 184 | 2.0 | 9.0 | 0.00 | 0.00 | 0.00 | 62 | 1011.7 |
| 20260902061617 | 82 | 200 | 2.0 | 9.0 | 0.00 | 0.00 | 0.00 | 62 | 1011.6 |
| 20260902061115 | 82 | 196 | 3.0 | 7.0 | 0.00 | 0.00 | 0.00 | 62 | 1011.5 |
| 20260902060629 | 82 | 191 | 1.0 | 8.0 | 0.00 | 0.00 | 0.00 | 62 | 1011.5 |
| 20260902060147 | 82 | 233 | 2.0 | 9.0 | 0.00 | 0.00 | 0.00 | 61 | 1011.4 |
| 20260902055629 | 82 | 185 | 3.0 | 9.0 | 0.00 | 0.00 | 0.00 | 61 | 1011.4 |
| 20260902055131 | 83 | 195 | 3.0 | 7.0 | 0.00 | 0.00 | 0.00 | 61 | 1011.3 |
| 20260902054620 | 83 | 165 | 3.0 | 11.0 | 0.00 | 0.00 | 0.00 | 61 | 1011.4 |
| 20260902054140 | 83 | 206 | 6.0 | 11.0 | 0.00 | 0.00 | 0.00 | 60 | 1011.4 |
| 20260902053624 | 83 | 273 | 0.0 | 9.0 | 0.00 | 0.00 | 0.00 | 60 | 1011.5 |
| 20260902053125 | 83 | 262 | 5.0 | 9.0 | 0.00 | 0.00 | 0.00 | 60 | 1011.6 |
| 20260902052648 | 83 | 207 | 3.0 | 9.0 | 0.00 | 0.00 | 0.00 | 60 | 1011.6 |
| 20260902052148 | 84 | 194 | 2.0 | 5.0 | 0.00 | 0.00 | 0.00 | 60 | 1011.7 |
| 20260902051630 | 84 | 164 | 2.0 | 7.0 | 0.00 | 0.00 | 0.00 | 59 | 1011.6 |
| 20260902051148 | 84 | 241 | 3.0 | 8.0 | 0.00 | 0.00 | 0.00 | 59 | 1011.7 |
| 20260902050617 | 84 | 232 | 2.0 | 7.0 | 0.00 | 0.00 | 0.00 | 59 | 1011.8 |
| 20260902050132 | 84 | 258 | 3.0 | 7.0 | 0.00 | 0.00 | 0.00 | 60 | 1011.7 |
| 20260902045628 | 84 | 184 | 3.0 | 7.0 | 0.00 | 0.00 | 0.00 | 59 | 1011.7 |
| 20260902045127 | 84 | 153 | 2.0 | 8.0 | 0.00 | 0.00 | 0.00 | 60 | 1011.6 |
| 20260902044632 | 84 | 226 | 1.0 | 8.0 | 0.00 | 0.00 | 0.00 | 60 | 1011.7 |
| 20260902044130 | 84 | 173 | 2.0 | 8.0 | 0.00 | 0.00 | 0.00 | 60 | 1011.8 |
| 20260902043634 | 84 | 192 | 2.0 | 8.0 | 0.00 | 0.00 | 0.00 | 60 | 1011.8 |
| 20260902043131 | 84 | 223 | 1.0 | 6.0 | 0.00 | 0.00 | 0.00 | 61 | 1011.7 |
| 20260902042635 | 84 | 226 | 2.0 | 6.0 | 0.00 | 0.00 | 0.00 | 61 | 1011.7 |
| 20260902042132 | 85 | 208 | 3.0 | 6.0 | 0.00 | 0.00 | 0.00 | 61 | 1011.8 |
| 20260902041635 | 85 | 155 | 3.0 | 6.0 | 0.00 | 0.00 | 0.00 | 61 | 1011.7 |
| 20260902041133 | 85 | 197 | 2.0 | 10.0 | 0.00 | 0.00 | 0.00 | 61 | 1011.7 |
| 20260902040620 | 85 | 259 | 2.0 | 10.0 | 0.00 | 0.00 | 0.00 | 61 | 1011.7 |
| 20260902040119 | 85 | 183 | 2.0 | 9.0 | 0.00 | 0.00 | 0.00 | 61 | 1011.8 |
| 20260902035643 | 85 | 188 | 1.0 | 5.0 | 0.00 | 0.00 | 0.00 | 61 | 1011.8 |
| 20260902035120 | 86 | 219 | 1.0 | 6.0 | 0.00 | 0.00 | 0.00 | 61 | 1011.8 |
| 20260902034624 | 86 | 195 | 1.0 | 6.0 | 0.00 | 0.00 | 0.00 | 61 | 1011.8 |
| 20260902034122 | 86 | 181 | 3.0 | 6.0 | 0.00 | 0.00 | 0.00 | 61 | 1011.9 |
| 20260902033646 | 86 | 191 | 0.0 | 6.0 | 0.00 | 0.00 | 0.00 | 61 | 1011.8 |
| 20260902033126 | 86 | 239 | 1.0 | 5.0 | 0.00 | 0.00 | 0.00 | 60 | 1011.7 |
| 20260902032632 | 86 | 272 | 3.0 | 8.0 | 0.00 | 0.00 | 0.00 | 60 | 1011.7 |
| 20260902032113 | 87 | 152 | 2.0 | 8.0 | 0.00 | 0.00 | 0.00 | 60 | 1011.7 |
| 20260902031621 | 87 | 96 | 1.0 | 6.0 | 0.00 | 0.00 | 0.00 | 60 | 1011.7 |
| 20260902031133 | 87 | 202 | 2.0 | 6.0 | 0.00 | 0.00 | 0.00 | 60 | 1011.7 |
| 20260902030636 | 87 | 113 | 1.0 | 5.0 | 0.00 | 0.00 | 0.00 | 60 | 1011.6 |
| 20260902030132 | 87 | 175 | 0.0 | 5.0 | 0.00 | 0.00 | 0.00 | 59 | 1011.6 |
| 20260902025636 | 87 | 145 | 1.0 | 6.0 | 0.00 | 0.00 | 0.00 | 59 | 1011.6 |
| 20260902025135 | 87 | 123 | 0.0 | 6.0 | 0.00 | 0.00 | 0.00 | 59 | 1011.5 |
| 20260902024620 | 87 | 9 | 1.0 | 4.0 | 0.00 | 0.00 | 0.00 | 59 | 1011.4 |
| 20260902024120 | 87 | 161 | 2.0 | 4.0 | 0.00 | 0.00 | 0.00 | 59 | 1011.5 |
| 20260902023625 | 88 | 188 | 1.0 | 5.0 | 0.00 | 0.00 | 0.00 | 59 | 1011.3 |
| 20260902023143 | 88 | 198 | 3.0 | 5.0 | 0.00 | 0.00 | 0.00 | 59 | 1011.3 |
| 20260902022626 | 88 | 161 | 1.0 | 5.0 | 0.00 | 0.00 | 0.00 | 59 | 1011.2 |
| 20260902022147 | 88 | 172 | 1.0 | 5.0 | 0.00 | 0.00 | 0.00 | 59 | 1011.1 |
| 20260902021632 | 88 | 133 | 1.0 | 5.0 | 0.00 | 0.00 | 0.00 | 59 | 1011.1 |
| 20260902021129 | 88 | 183 | 1.0 | 5.0 | 0.00 | 0.00 | 0.00 | 59 | 1011.0 |
| 20260902020631 | 88 | 175 | 2.0 | 4.0 | 0.00 | 0.00 | 0.00 | 59 | 1011.0 |
| 20260902020133 | 88 | 153 | 1.0 | 5.0 | 0.00 | 0.00 | 0.00 | 59 | 1010.9 |
| 20260902015636 | 89 | 180 | 0.0 | 5.0 | 0.00 | 0.00 | 0.00 | 59 | 1010.7 |
| 20260902015134 | 89 | 133 | 2.0 | 4.0 | 0.00 | 0.00 | 0.00 | 59 | 1010.7 |
| 20260902014618 | 89 | 185 | 0.0 | 2.0 | 0.00 | 0.00 | 0.00 | 59 | 1010.6 |
| 20260902014135 | 89 | 197 | 1.0 | 2.0 | 0.00 | 0.00 | 0.00 | 59 | 1010.6 |
| 20260902013639 | 89 | 185 | 0.0 | 3.0 | 0.00 | 0.00 | 0.00 | 59 | 1010.5 |
| 20260902013120 | 90 | 206 | 1.0 | 4.0 | 0.00 | 0.00 | 0.00 | 58 | 1010.4 |
| 20260902012622 | 90 | 167 | 1.0 | 6.0 | 0.00 | 0.00 | 0.00 | 58 | 1010.4 |
| 20260902012120 | 90 | 162 | 1.0 | 6.0 | 0.00 | 0.00 | 0.00 | 58 | 1010.3 |
| 20260902011626 | 90 | 188 | 0.0 | 5.0 | 0.00 | 0.00 | 0.00 | 58 | 1010.3 |
| 20260902011126 | 90 | 182 | 1.0 | 5.0 | 0.00 | 0.00 | 0.00 | 58 | 1010.4 |
| 20260902010626 | 91 | 208 | 1.0 | 4.0 | 0.00 | 0.00 | 0.00 | 57 | 1010.3 |
| 20260902010130 | 91 | 183 | 0.0 | 2.0 | 0.00 | 0.00 | 0.00 | 57 | 1010.3 |
| 20260902005636 | 91 | 123 | 0.0 | 4.0 | 0.00 | 0.00 | 0.00 | 57 | 1010.3 |
| 20260902005114 | 92 | 188 | 1.0 | 4.0 | 0.00 | 0.00 | 0.00 | 56 | 1010.3 |
| 20260902004623 | 92 | 133 | 0.0 | 4.0 | 0.00 | 0.00 | 0.00 | 56 | 1010.3 |
| 20260902004125 | 92 | 177 | 1.0 | 4.0 | 0.00 | 0.00 | 0.00 | 55 | 1010.2 |
| 20260902003627 | 93 | 178 | 0.0 | 5.0 | 0.00 | 0.00 | 0.00 | 54 | 1010.2 |
| 20260902003146 | 93 | 178 | 0.0 | 7.0 | 0.00 | 0.00 | 0.00 | 53 | 1010.2 |
| 20260902002628 | 94 | 194 | 1.0 | 7.0 | 0.00 | 0.00 | 0.00 | 53 | 1010.2 |
| 20260902002124 | 94 | 219 | 3.0 | 7.0 | 0.00 | 0.00 | 0.00 | 51 | 1010.2 |
| 20260902001631 | 94 | 125 | 4.0 | 7.0 | 0.00 | 0.00 | 0.00 | 51 | 1010.3 |
| 20260902001129 | 95 | 235 | 0.0 | 10.0 | 0.00 | 0.00 | 0.00 | 52 | 1010.2 |
| 20260902000627 | 95 | 175 | 4.0 | 10.0 | 0.00 | 0.00 | 0.00 | 50 | 1010.3 |
| 20260902000126 | 95 | 225 | 1.0 | 9.0 | 0.00 | 0.00 | 0.00 | 50 | 1010.3 |
| 20260901235629 | 95 | 189 | 2.0 | 6.0 | 0.00 | 0.00 | 0.00 | 50 | 1010.4 |
| 20260901235126 | 95 | 202 | 3.0 | 9.0 | 0.00 | 0.00 | 0.00 | 50 | 1010.3 |
| 20260901234633 | 96 | 249 | 5.0 | 9.0 | 0.00 | 0.00 | 0.00 | 49 | 1010.4 |
| 20260901234134 | 96 | 255 | 2.0 | 6.0 | 0.00 | 0.00 | 0.00 | 50 | 1010.5 |
| 20260901233618 | 96 | 272 | 3.0 | 7.0 | 0.00 | 0.00 | 0.00 | 50 | 1010.6 |
| 20260901233135 | 96 | 263 | 3.0 | 7.0 | 0.00 | 0.00 | 0.00 | 49 | 1010.6 |
| 20260901232641 | 96 | 266 | 2.0 | 9.0 | 0.00 | 0.00 | 0.00 | 50 | 1010.6 |
| 20260901232118 | 96 | 229 | 1.0 | 10.0 | 0.00 | 0.00 | 0.00 | 50 | 1010.6 |
| 20260901231621 | 96 | 256 | 5.0 | 11.0 | 0.00 | 0.00 | 0.00 | 49 | 1010.6 |
| 20260901231138 | 96 | 243 | 5.0 | 14.0 | 0.00 | 0.00 | 0.00 | 49 | 1010.6 |
| 20260901230646 | 96 | 239 | 3.0 | 14.0 | 0.00 | 0.00 | 0.00 | 49 | 1010.7 |
| 20260901230125 | 96 | 189 | 4.0 | 11.0 | 0.00 | 0.00 | 0.00 | 49 | 1010.7 |
| 20260901225651 | 96 | 160 | 2.0 | 8.0 | 0.00 | 0.00 | 0.00 | 50 | 1010.7 |
| 20260901225127 | 96 | 208 | 3.0 | 8.0 | 0.00 | 0.00 | 0.00 | 49 | 1010.8 |
| 20260901224631 | 96 | 239 | 3.0 | 8.0 | 0.00 | 0.00 | 0.00 | 50 | 1010.8 |
| 20260901224149 | 96 | 238 | 3.0 | 8.0 | 0.00 | 0.00 | 0.00 | 49 | 1010.9 |
| 20260901223632 | 96 | 156 | 5.0 | 10.0 | 0.00 | 0.00 | 0.00 | 50 | 1010.9 |
| 20260901223131 | 96 | 221 | 5.0 | 11.0 | 0.00 | 0.00 | 0.00 | 49 | 1010.8 |
| 20260901222615 | 96 | 246 | 5.0 | 13.0 | 0.00 | 0.00 | 0.00 | 49 | 1010.8 |
| 20260901222136 | 96 | 193 | 6.0 | 13.0 | 0.00 | 0.00 | 0.00 | 49 | 1010.9 |
| 20260901221622 | 96 | 282 | 4.0 | 13.0 | 0.00 | 0.00 | 0.00 | 50 | 1010.9 |
| 20260901221118 | 96 | 244 | 7.0 | 16.0 | 0.00 | 0.00 | 0.00 | 49 | 1011.0 |
| 20260901220621 | 96 | 231 | 5.0 | 16.0 | 0.00 | 0.00 | 0.00 | 50 | 1011.1 |
| 20260901220119 | 96 | 256 | 4.0 | 11.0 | 0.00 | 0.00 | 0.00 | 52 | 1011.1 |
| 20260901215623 | 96 | 281 | 6.0 | 11.0 | 0.00 | 0.00 | 0.00 | 52 | 1011.1 |
| 20260901215123 | 96 | 215 | 5.0 | 14.0 | 0.00 | 0.00 | 0.00 | 52 | 1011.2 |
| 20260901214627 | 96 | 211 | 6.0 | 14.0 | 0.00 | 0.00 | 0.00 | 52 | 1011.1 |
| 20260901214128 | 96 | 254 | 5.0 | 14.0 | 0.00 | 0.00 | 0.00 | 52 | 1011.2 |
| 20260901213632 | 96 | 212 | 3.0 | 14.0 | 0.00 | 0.00 | 0.00 | 52 | 1011.2 |
| 20260901213134 | 96 | 202 | 7.0 | 10.0 | 0.00 | 0.00 | 0.00 | 51 | 1011.3 |
| 20260901212622 | 96 | 255 | 2.0 | 12.0 | 0.00 | 0.00 | 0.00 | 52 | 1011.3 |
| 20260901212144 | 96 | 241 | 4.0 | 12.0 | 0.00 | 0.00 | 0.00 | 51 | 1011.3 |
| 20260901211634 | 96 | 216 | 5.0 | 11.0 | 0.00 | 0.00 | 0.00 | 52 | 1011.4 |
| 20260901211133 | 96 | 293 | 4.0 | 12.0 | 0.00 | 0.00 | 0.00 | 52 | 1011.4 |
| 20260901210636 | 95 | 254 | 4.0 | 13.0 | 0.00 | 0.00 | 0.00 | 52 | 1011.4 |
| 20260901210136 | 96 | 172 | 6.0 | 13.0 | 0.00 | 0.00 | 0.00 | 51 | 1011.5 |
| 20260901205622 | 96 | 208 | 4.0 | 13.0 | 0.00 | 0.00 | 0.00 | 53 | 1011.5 |
| 20260901205141 | 95 | 241 | 4.0 | 13.0 | 0.00 | 0.00 | 0.00 | 52 | 1011.5 |
| 20260901204624 | 95 | 279 | 6.0 | 12.0 | 0.00 | 0.00 | 0.00 | 52 | 1011.7 |
| 20260901204122 | 95 | 167 | 6.0 | 12.0 | 0.00 | 0.00 | 0.00 | 52 | 1011.8 |
| 20260901203629 | 95 | 242 | 6.0 | 12.0 | 0.00 | 0.00 | 0.00 | 51 | 1011.8 |
| 20260901203129 | 95 | 183 | 6.0 | 11.0 | 0.00 | 0.00 | 0.00 | 52 | 1011.8 |
| 20260901202634 | 95 | 182 | 4.0 | 11.0 | 0.00 | 0.00 | 0.00 | 52 | 1012.0 |
| 20260901202114 | 95 | 167 | 7.0 | 9.0 | 0.00 | 0.00 | 0.00 | 52 | 1012.0 |
| 20260901201625 | 95 | 270 | 3.0 | 12.0 | 0.00 | 0.00 | 0.00 | 54 | 1012.1 |
| 20260901201122 | 94 | 83 | 4.0 | 12.0 | 0.00 | 0.00 | 0.00 | 53 | 1012.1 |
| 20260901200646 | 94 | 221 | 3.0 | 12.0 | 0.00 | 0.00 | 0.00 | 54 | 1012.2 |
| 20260901200126 | 94 | 210 | 4.0 | 12.0 | 0.00 | 0.00 | 0.00 | 53 | 1012.3 |
| 20260901195630 | 94 | 77 | 6.0 | 9.0 | 0.00 | 0.00 | 0.00 | 53 | 1012.3 |
| 20260901195146 | 94 | 240 | 4.0 | 12.0 | 0.00 | 0.00 | 0.00 | 53 | 1012.3 |
| 20260901194628 | 94 | 306 | 3.0 | 12.0 | 0.00 | 0.00 | 0.00 | 53 | 1012.3 |
| 20260901194129 | 94 | 239 | 3.0 | 11.0 | 0.00 | 0.00 | 0.00 | 54 | 1012.4 |
| 20260901193633 | 94 | 149 | 5.0 | 9.0 | 0.00 | 0.00 | 0.00 | 53 | 1012.4 |
| 20260901193131 | 94 | 176 | 4.0 | 9.0 | 0.00 | 0.00 | 0.00 | 52 | 1012.5 |
| 20260901192633 | 94 | 145 | 2.0 | 9.0 | 0.00 | 0.00 | 0.00 | 51 | 1012.4 |
| 20260901192133 | 94 | 233 | 4.0 | 9.0 | 0.00 | 0.00 | 0.00 | 53 | 1012.6 |
| 20260901191636 | 94 | 183 | 3.0 | 8.0 | 0.00 | 0.00 | 0.00 | 53 | 1012.6 |
| 20260901191117 | 93 | 170 | 3.0 | 8.0 | 0.00 | 0.00 | 0.00 | 52 | 1012.7 |
| 20260901190625 | 93 | 191 | 2.0 | 7.0 | 0.00 | 0.00 | 0.00 | 53 | 1012.8 |
| 20260901190127 | 93 | 237 | 2.0 | 9.0 | 0.00 | 0.00 | 0.00 | 53 | 1012.8 |
| 20260901185630 | 93 | 291 | 2.0 | 9.0 | 0.00 | 0.00 | 0.00 | 53 | 1012.8 |
| 20260901185127 | 92 | 283 | 4.0 | 8.0 | 0.00 | 0.00 | 0.00 | 52 | 1012.8 |
| 20260901184630 | 92 | 183 | 4.0 | 11.0 | 0.00 | 0.00 | 0.00 | 53 | 1012.8 |
| 20260901184131 | 92 | 127 | 4.0 | 11.0 | 0.00 | 0.00 | 0.00 | 54 | 1012.8 |
| 20260901183617 | 92 | 283 | 1.0 | 9.0 | 0.00 | 0.00 | 0.00 | 54 | 1012.9 |
| 20260901183155 | 92 | 167 | 4.0 | 9.0 | 0.00 | 0.00 | 0.00 | 53 | 1012.9 |
| 20260901182618 | 91 | 189 | 2.0 | 11.0 | 0.00 | 0.00 | 0.00 | 54 | 1012.9 |
| 20260901182117 | 91 | 249 | 5.0 | 11.0 | 0.00 | 0.00 | 0.00 | 54 | 1013.0 |
| 20260901181621 | 91 | 117 | 3.0 | 7.0 | 0.00 | 0.00 | 0.00 | 55 | 1013.0 |
| 20260901181119 | 91 | 175 | 3.0 | 6.0 | 0.00 | 0.00 | 0.00 | 54 | 1013.1 |
| 20260901180621 | 91 | 137 | 4.0 | 6.0 | 0.00 | 0.00 | 0.00 | 55 | 1013.1 |
| 20260901180119 | 91 | 206 | 4.0 | 6.0 | 0.00 | 0.00 | 0.00 | 55 | 1013.2 |
| 20260901175622 | 90 | 237 | 3.0 | 6.0 | 0.00 | 0.00 | 0.00 | 56 | 1013.3 |
| 20260901175120 | 90 | 184 | 1.0 | 8.0 | 0.00 | 0.00 | 0.00 | 55 | 1013.3 |
| 20260901174648 | 90 | 119 | 3.0 | 8.0 | 0.00 | 0.00 | 0.00 | 56 | 1013.4 |
| 20260901174122 | 89 | 204 | 2.0 | 7.0 | 0.00 | 0.00 | 0.00 | 56 | 1013.4 |
| 20260901173625 | 89 | 204 | 3.0 | 7.0 | 0.00 | 0.00 | 0.00 | 56 | 1013.4 |
| 20260901173128 | 89 | 291 | 3.0 | 8.0 | 0.00 | 0.00 | 0.00 | 57 | 1013.5 |
| 20260901172636 | 89 | 124 | 3.0 | 8.0 | 0.00 | 0.00 | 0.00 | 57 | 1013.6 |
| 20260901172117 | 89 | 144 | 5.0 | 7.0 | 0.00 | 0.00 | 0.00 | 57 | 1013.6 |
| 20260901171621 | 89 | 225 | 1.0 | 5.0 | 0.00 | 0.00 | 0.00 | 56 | 1013.7 |
| 20260901171119 | 89 | 241 | 3.0 | 8.0 | 0.00 | 0.00 | 0.00 | 55 | 1013.7 |
| 20260901170628 | 89 | 100 | 3.0 | 8.0 | 0.00 | 0.00 | 0.00 | 58 | 1013.6 |
| 20260901170128 | 89 | 190 | 2.0 | 6.0 | 0.00 | 0.00 | 0.00 | 57 | 1013.6 |
| 20260901165653 | 88 | 129 | 1.0 | 5.0 | 0.00 | 0.00 | 0.00 | 58 | 1013.6 |
| 20260901165132 | 88 | 222 | 4.0 | 6.0 | 0.00 | 0.00 | 0.00 | 56 | 1013.6 |
| 20260901164617 | 88 | 146 | 2.0 | 6.0 | 0.00 | 0.00 | 0.00 | 56 | 1013.7 |
| 20260901164158 | 88 | 238 | 3.0 | 6.0 | 0.00 | 0.00 | 0.00 | 56 | 1013.7 |
| 20260901163641 | 88 | 148 | 3.0 | 6.0 | 0.00 | 0.00 | 0.00 | 57 | 1013.7 |
| 20260901163118 | 88 | 241 | 2.0 | 7.0 | 0.00 | 0.00 | 0.00 | 57 | 1013.7 |
| 20260901162622 | 88 | 140 | 3.0 | 7.0 | 0.00 | 0.00 | 0.00 | 56 | 1013.8 |
| 20260901162120 | 87 | 184 | 2.0 | 7.0 | 0.00 | 0.00 | 0.00 | 58 | 1013.8 |
| 20260901161627 | 87 | 193 | 3.0 | 7.0 | 0.00 | 0.00 | 0.00 | 57 | 1013.7 |
| 20260901161126 | 87 | 216 | 2.0 | 5.0 | 0.00 | 0.00 | 0.00 | 57 | 1013.8 |
| 20260901160632 | 87 | 204 | 2.0 | 6.0 | 0.00 | 0.00 | 0.00 | 57 | 1013.8 |
| 20260901160132 | 86 | 229 | 1.0 | 6.0 | 0.00 | 0.00 | 0.00 | 58 | 1013.8 |
| 20260901155635 | 86 | 251 | 2.0 | 6.0 | 0.00 | 0.00 | 0.00 | 57 | 1013.8 |
| 20260901155153 | 86 | 194 | 2.0 | 6.0 | 0.00 | 0.00 | 0.00 | 58 | 1013.7 |
| 20260901154619 | 86 | 173 | 3.0 | 5.0 | 0.00 | 0.00 | 0.00 | 60 | 1013.7 |
| 20260901154138 | 85 | 175 | 2.0 | 5.0 | 0.00 | 0.00 | 0.00 | 59 | 1013.7 |
| 20260901153624 | 85 | 314 | 2.0 | 5.0 | 0.00 | 0.00 | 0.00 | 60 | 1013.7 |
| 20260901153124 | 85 | 272 | 1.0 | 5.0 | 0.00 | 0.00 | 0.00 | 60 | 1013.7 |
| 20260901152627 | 85 | 221 | 2.0 | 5.0 | 0.00 | 0.00 | 0.00 | 60 | 1013.7 |
| 20260901152124 | 85 | 271 | 3.0 | 4.0 | 0.00 | 0.00 | 0.00 | 60 | 1013.7 |
| 20260901151628 | 84 | 229 | 2.0 | 6.0 | 0.00 | 0.00 | 0.00 | 60 | 1013.7 |
| 20260901151126 | 84 | 198 | 3.0 | 6.0 | 0.00 | 0.00 | 0.00 | 61 | 1013.7 |
| 20260901150635 | 84 | 129 | 3.0 | 5.0 | 0.00 | 0.00 | 0.00 | 62 | 1013.7 |
| 20260901150118 | 83 | 194 | 2.0 | 6.0 | 0.00 | 0.00 | 0.00 | 65 | 1013.9 |
| 20260901145625 | 83 | 285 | 3.0 | 6.0 | 0.00 | 0.00 | 0.00 | 63 | 1013.9 |
| 20260901145123 | 83 | 294 | 1.0 | 5.0 | 0.00 | 0.00 | 0.00 | 65 | 1013.8 |
| 20260901144626 | 83 | 242 | 3.0 | 5.0 | 0.00 | 0.00 | 0.00 | 65 | 1013.9 |
| 20260901144123 | 83 | 223 | 3.0 | 5.0 | 0.00 | 0.00 | 0.00 | 64 | 1014.0 |
| 20260901143630 | 82 | 189 | 1.0 | 5.0 | 0.00 | 0.00 | 0.00 | 65 | 1014.0 |
| 20260901143127 | 82 | 224 | 1.0 | 7.0 | 0.00 | 0.00 | 0.00 | 65 | 1014.0 |
| 20260901142634 | 82 | 172 | 1.0 | 7.0 | 0.00 | 0.00 | 0.00 | 65 | 1014.0 |
| 20260901142115 | 82 | 135 | 3.0 | 5.0 | 0.00 | 0.00 | 0.00 | 65 | 1014.1 |
| 20260901141622 | 82 | 285 | 0.0 | 4.0 | 0.00 | 0.00 | 0.00 | 66 | 1014.2 |
| 20260901141120 | 82 | 248 | 2.0 | 3.0 | 0.00 | 0.00 | 0.00 | 66 | 1014.2 |
| 20260901140623 | 82 | 217 | 2.0 | 5.0 | 0.00 | 0.00 | 0.00 | 66 | 1014.2 |
| 20260901140122 | 82 | 281 | 2.0 | 5.0 | 0.00 | 0.00 | 0.00 | 66 | 1014.2 |
| 20260901135628 | 81 | 216 | 0.0 | 4.0 | 0.00 | 0.00 | 0.00 | 67 | 1014.1 |
| 20260901135125 | 81 | 187 | 1.0 | 5.0 | 0.00 | 0.00 | 0.00 | 69 | 1014.2 |
| 20260901134649 | 81 | 196 | 0.0 | 6.0 | 0.00 | 0.00 | 0.00 | 68 | 1014.2 |
| 20260901134146 | 80 | 183 | 3.0 | 6.0 | 0.00 | 0.00 | 0.00 | 68 | 1014.1 |
| 20260901133631 | 80 | 219 | 2.0 | 5.0 | 0.00 | 0.00 | 0.00 | 69 | 1014.1 |
| 20260901133124 | 79 | 131 | 1.0 | 4.0 | 0.00 | 0.00 | 0.00 | 71 | 1014.1 |
| 20260901132629 | 79 | 203 | 0.0 | 4.0 | 0.00 | 0.00 | 0.00 | 73 | 1014.2 |
| 20260901132130 | 79 | 161 | 0.0 | 4.0 | 0.00 | 0.00 | 0.00 | 73 | 1014.2 |
| 20260901131617 | 79 | 192 | 1.0 | 4.0 | 0.00 | 0.00 | 0.00 | 73 | 1014.2 |
| 20260901131132 | 79 | 192 | 0.0 | 4.0 | 0.00 | 0.00 | 0.00 | 73 | 1014.2 |
| 20260901130619 | 78 | 192 | 1.0 | 5.0 | 0.00 | 0.00 | 0.00 | 74 | 1014.1 |
| 20260901130116 | 78 | 192 | 0.0 | 5.0 | 0.00 | 0.00 | 0.00 | 74 | 1014.1 |
| 20260901125642 | 78 | 179 | 1.0 | 3.0 | 0.00 | 0.00 | 0.00 | 74 | 1014.1 |
| 20260901125118 | 78 | 212 | 1.0 | 3.0 | 0.00 | 0.00 | 0.00 | 74 | 1014.0 |